Tracking 19177 objects as of 24-May-2018
HD Live streaming from Space Station
objects crossing your sky now

IRIDIUM 72


IRIDIUM 72 is no longer on orbit
IRIDIUM 72 is classified as:


NORAD ID: 25343
Int'l Code: 1998-032B
Perigee: N/A
Apogee: N/A
Inclination: N/A
Period: N/A
Semi major axis: N/A
RCS: N/A
Launch date: May 17, 1998
Source: United States (US)
Launch site: AIR FORCE WESTERN TEST RANGE (AFWTR)
Decay date: 2018-05-14
aabbcc
Your satellite tracking list
Your tracking list is empty




NASA's NSSDC Master Catalog

Two Line Element Set (TLE):
1 25343U 98032B   18133.88891080  .18300456 -19437-5  35149-3 0  9999
2 25343  86.3589  84.1089 0049325 121.6779 238.8899 16.40946683 46693
Source of the keplerian elements: AFSPC